Location: Hillern
(53.0557°N, 9.8577°E)
Time: 07:29:41
(UTC+00:00)

GP-B - Pass Details

Date: 19 May 2025
Orbit: 619 x 624 km, 89.8° (Epoch: 22 June)

Event Time Altitude Azimuth Distance (km) Brightness Sun altitude
Rises 23:08:13 0° 1° (N) 2,920 8.3 -16.9°
Reaches altitude 10° 23:10:27 10° 3° (N) 2,007 7.0 -16.9°
Maximum altitude 23:14:52 81° 90° (E) 637 3.0 -17.0°
Enters shadow 23:16:47 33° 175° (S) 1,043 3.6 -17.0°
